Location: Emblem
(62.4273°N, 6.4710°E)
Time: 06:16:44
(UTC+01:00)

SR - All Passes

Search period start: 30 January 2023 00:00
Search period end: 09 February 2023 00:00
Orbit: 581 x 870 km, 66.7° (Epoch: 29 January)

Date Brightness Start Highest point End Pass type
(mag) Time Alt. Az. Time Alt. Az. Time Alt. Az.
30 Jan - 01:00:57 10° WNW 01:04:21 22° WSW 01:07:40 10° S night (unlit)
30 Jan - 15:40:50 10° SSE 15:44:16 19° ESE 15:47:31 10° ENE daylight
30 Jan - 17:20:40 10° SW 17:25:33 59° SE 17:30:05 10° ENE visible
30 Jan - 19:02:49 10° WSW 19:07:37 62° NNW 19:12:05 10° ENE visible
30 Jan - 20:45:35 10° WNW 20:50:08 50° N 20:54:25 10° E visible
30 Jan - 22:27:58 10° WNW 22:32:32 80° NNE 22:36:51 10° ESE visible
31 Jan - 00:10:12 10° WNW 00:14:13 35° SW 00:18:06 10° SSE night (unlit)
31 Jan - 14:52:40 10° SE 14:54:16 11° ESE 14:55:51 10° E daylight
31 Jan - 16:30:36 10° SSW 16:35:14 40° SE 16:39:33 10° ENE daylight
31 Jan - 18:12:09 10° WSW 18:17:04 78° NNW 18:21:35 10° ENE visible
31 Jan - 19:54:52 10° W 19:59:28 50° N 20:03:46 10° ENE visible
31 Jan - 21:37:25 10° WNW 21:41:59 62° NNE 21:46:16 10° ESE visible
31 Jan - 23:19:36 10° WNW 23:23:58 54° SW 23:28:07 10° SSE visible
01 Feb - 01:02:35 10° WNW 01:05:01 15° WSW 01:07:25 10° SSW night (unlit)
01 Feb - 15:40:53 10° S 15:45:01 27° ESE 15:48:54 10° ENE daylight
01 Feb - 17:21:38 10° SW 17:26:34 79° SE 17:31:07 10° ENE visible
01 Feb - 19:04:07 10° W 19:08:48 54° NNW 19:13:10 10° ENE visible
01 Feb - 20:46:49 10° WNW 20:51:21 53° NNE 20:55:37 10° E visible
01 Feb - 22:29:05 10° WNW 22:33:35 79° SW 22:37:51 10° SE visible
02 Feb - 00:11:29 10° WNW 00:15:00 24° WSW 00:18:24 10° S visible
02 Feb - 14:51:44 10° SSE 14:54:55 17° ESE 14:57:58 10° ENE daylight
02 Feb - 16:31:20 10° SSW 16:36:10 55° SE 16:40:38 10° ENE daylight
02 Feb - 18:13:23 10° WSW 18:18:11 64° NNW 18:22:38 10° ENE visible
02 Feb - 19:56:10 10° WNW 20:00:41 49° N 20:04:57 10° E visible
02 Feb - 21:38:34 10° WNW 21:43:06 77° NNE 21:47:24 10° ESE visible
02 Feb - 23:20:46 10° WNW 23:24:51 37° SW 23:28:46 10° SSE visible
03 Feb - 14:04:07 10° ESE 14:04:56 10° ESE 14:05:47 10° E daylight
03 Feb - 15:41:18 10° SSW 15:45:51 37° SE 15:50:06 10° ENE daylight
03 Feb - 17:22:45 10° WSW 17:27:38 81° NNW 17:32:09 10° ENE visible
03 Feb - 19:05:26 10° W 19:10:01 50° N 19:14:18 10° ENE visible
03 Feb - 20:48:00 10° WNW 20:52:32 60° NNE 20:56:48 10° E visible
03 Feb - 22:30:11 10° WNW 22:34:34 57° SW 22:38:44 10° SE visible
04 Feb - 00:13:01 10° WNW 00:15:41 16° WSW 00:18:17 10° SSW night (unlit)
04 Feb - 14:51:40 10° S 14:55:39 25° ESE 14:59:25 10° ENE daylight
04 Feb - 16:32:16 10° SW 16:37:09 75° SE 16:41:40 10° ENE daylight
04 Feb - 18:14:41 10° W 18:19:21 55° NNW 18:23:43 10° ENE visible
04 Feb - 19:57:23 10° WNW 20:01:54 52° N 20:06:08 10° E visible
04 Feb - 21:39:40 10° WNW 21:44:09 83° SW 21:48:26 10° SE visible
04 Feb - 23:22:01 10° WNW 23:25:37 25° WSW 23:29:08 10° S visible
05 Feb - 14:02:38 10° SSE 14:05:33 16° ESE 14:08:23 10° ENE daylight
05 Feb - 15:41:59 10° SSW 15:46:45 52° SE 15:51:11 10° ENE daylight
05 Feb - 17:23:58 10° WSW 17:28:44 66° NNW 17:33:11 10° ENE daylight
05 Feb - 19:06:43 10° WNW 19:11:14 49° N 19:15:29 10° ENE visible
05 Feb - 20:49:08 10° WNW 20:53:40 73° NNE 20:57:57 10° ESE visible
05 Feb - 22:31:20 10° WNW 22:35:27 40° SW 22:39:25 10° SSE visible
06 Feb - 00:15:58 10° WSW 00:16:15 10° WSW 00:16:32 10° WSW night (unlit)
06 Feb - 14:52:01 10° SSW 14:56:28 35° SE 15:00:37 10° ENE daylight
06 Feb - 16:33:20 10° WSW 16:38:11 85° NNW 16:42:41 10° ENE daylight
06 Feb - 18:15:59 10° W 18:20:33 50° N 18:24:50 10° ENE visible
06 Feb - 19:58:34 10° WNW 20:03:04 59° NNE 20:07:20 10° E visible
06 Feb - 21:40:45 10° WNW 21:45:09 61° SW 21:49:20 10° SE visible
06 Feb - 23:23:28 10° WNW 23:26:19 17° WSW 23:29:06 10° SSW visible
07 Feb - 14:02:27 10° S 14:06:17 23° ESE 14:09:54 10° ENE daylight
07 Feb - 15:42:52 10° SW 15:47:43 71° SE 15:52:13 10° ENE daylight
07 Feb - 17:25:14 10° W 17:29:53 56° NNW 17:34:15 10° ENE daylight
07 Feb - 19:07:57 10° WNW 19:12:26 51° N 19:16:39 10° E visible
07 Feb - 20:50:14 10° WNW 20:54:43 87° SSW 20:59:00 10° SE visible
07 Feb - 22:32:32 10° WNW 22:36:14 27° WSW 22:39:50 10° S visible
08 Feb - 13:13:34 10° SE 13:16:12 15° ESE 13:18:45 10° E daylight
08 Feb - 14:52:38 10° SSW 14:57:20 49° SE 15:01:43 10° ENE daylight
08 Feb - 16:34:31 10° WSW 16:39:17 68° NNW 16:43:43 10° ENE daylight
08 Feb - 18:17:15 10° WNW 18:21:45 49° N 18:25:58 10° ENE visible
08 Feb - 19:59:42 10° WNW 20:04:12 70° NNE 20:08:28 10° ESE visible
08 Feb - 21:41:52 10° WNW 21:46:02 42° SW 21:50:03 10° SSE visible
08 Feb - 23:25:42 10° W 23:26:54 11° WSW 23:28:06 10° SW visible
